Weather observations for the past three days for
San Diego, Montgomery Field
Imperial (Metric)
Date Time (pdt) Wind (mph) Vis. (mi.) Weather Sky Cond. Temperature (ºF) Relative Humidity Wind Chill (°F) Heat Index (°F) Pressure Precipitation (in)
Air Dwpt 6 hour altimeter (in) sea level (mb) 1 hr 3 hr 6 hr
Max. Min.
23 15:53 SW 9 10.00 Fair CLR 77 64 64% 79 29.92 1012.7
23 14:53 W 9 10.00 Fair CLR 78.1 64.9 64% 80 29.92 1012.7
23 12:53 SW 7 10.00 Fair CLR 77 66 69% 79 29.92 1012.8
23 11:53 SW 10 10.00 Fair CLR 71.1 64.9 81% 29.92 1012.8
23 10:53 SW 9 10.00 Fair CLR 77 66 79 68 69% 79 29.93 1013.0
23 09:53 W 6 10.00 Fair CLR 77 66 69% 79 29.93 1013.0
23 08:53 S 5 10.00 Fair CLR 77 64.9 66% 79 29.92 1012.8
23 07:53 Calm 10.00 Fair CLR 73 64 74% 29.91 1012.4
23 06:53 Calm 9.00 Fair CLR 70 64 82% 29.9 1012.0
23 05:53 N 5 10.00 Fair CLR 69.1 63 81% 29.88 1011.3
23 04:53 NW 5 10.00 Fair CLR 69.1 63 70 68 81% 29.86 1010.8
23 03:53 N 3 10.00 Fair CLR 69.1 63 81% 29.85 1010.2
23 02:53 N 5 10.00 Fair CLR 68 63 84% 29.85 1010.4
23 01:53 N 7 9.00 Fair CLR 68 63 84% 29.86 1010.7
23 00:53 NW 6 10.00 Fair CLR 69.1 63 81% 29.86 1010.6
22 23:53 Calm 10.00 Fair CLR 70 63 79% 29.87 1010.9
22 22:53 Calm 10.00 Fair CLR 69.1 63 77 66.9 81% 29.87 1011.1
22 21:53 Calm 10.00 Fair CLR 69.1 63 81% 29.87 1011.2
22 20:53 SW 6 10.00 Fair CLR 68 63 84% 29.87 1011.0
22 19:53 SW 7 10.00 Fair CLR 68 63 84% 29.86 1010.6
22 18:53 SW 7 10.00 Fair CLR 72 63 73% 29.84 1010.1
22 17:53 SW 9 10.00 Fair CLR 73.9 64 71% 29.84 1009.8
22 16:53 W 7 10.00 Fair CLR 77 64 79 75.9 64% 79 29.83 1009.7
22 15:53 SW 9 10.00 Fair CLR 78.1 64.9 64% 80 29.84 1009.8
22 14:53 SW 8 10.00 Fair CLR 78.1 64.9 64% 80 29.84 1010.1
22 13:53 SW 9 10.00 Fair CLR 77 64 64% 79 29.86 1010.7
22 12:53 SW 8 10.00 Fair CLR 78.1 64 62% 80 29.86 1010.7
22 11:53 SW 8 10.00 Fair CLR 77 64 64% 79 29.87 1011.0
22 10:53 W 9 9.00 Fair CLR 77 64 77 66 64% 79 29.88 1011.5
22 09:53 SW 8 9.00 Fair CLR 75.9 64 67% 78 29.88 1011.3
22 08:53 Vrbl 3 10.00 Fair CLR 73 64 74% 29.89 1011.6
22 07:53 Calm 9.00 Fair CLR 69.1 63 81% 29.87 1011.1
22 06:53 Calm 8.00 Fair CLR 68 62.1 81% 29.87 1011.0
22 05:53 Calm 10.00 Fair CLR 66 60.1 81% 29.87 1011.0
22 04:53 Calm 9.00 Fair CLR 66.9 61 68 66 81% 29.86 1010.6
22 03:53 Calm 10.00 Fair CLR 66.9 61 81% 29.86 1010.6
22 02:53 N 3 10.00 Fair CLR 66.9 61 81% 29.86 1010.7
22 01:53 NW 3 9.00 Fair CLR 66.9 61 81% 29.86 1010.8
22 00:53 W 3 10.00 Fair CLR 66 61 84% 29.88 1011.3
21 23:53 SW 3 10.00 Fair CLR 66.9 61 81% 29.89 1011.8
21 22:53 Calm 10.00 Fair CLR 66.9 61 77 66.9 81% 29.89 1011.8
21 21:53 Calm 10.00 Fair CLR 69.1 61 76% 29.9 1012.0
21 20:53 W 5 10.00 Fair CLR 68 61 78% 29.9 1011.9
21 19:53 SW 7 9.00 Fair CLR 69.1 62.1 78% 29.88 1011.4
21 18:53 S 7 10.00 Fair CLR 71.1 62.1 73% 29.88 1011.3
21 17:53 SW 8 10.00 Fair CLR 73 63 71% 29.88 1011.3
21 16:53 W 8 10.00 Fair CLR 77 63 79 75.9 62% 79 29.88 1011.4
21 15:53 SW 12 G 17 10.00 Fair CLR 75.9 63 64% 78 29.9 1011.9
21 14:53 W 9 10.00 Fair CLR 75.9 63 64% 78 29.9 1012.1
21 13:53 W 8 G 17 10.00 Fair CLR 78.1 64 62% 80 29.92 1012.7
21 12:53 S 10 10.00 Fair CLR 78.1 63 60% 80 29.92 1012.6
21 11:53 SW 12 10.00 Fair CLR 78.1 64 62% 80 29.93 1013.0
21 10:53 W 8 10.00 Fair CLR 75.9 64 75.9 66 67% 78 29.93 1013.0
21 09:53 Vrbl 6 10.00 Fair CLR 75 64 69% 77 29.93 1013.0
21 08:53 Calm 8.00 Partly Cloudy SCT009 72 64.9 79% 29.92 1012.7
21 07:53 Calm 6.00 Mostly Cloudy with Haze BKN009 70 64 82% 29.91 1012.4
21 06:53 Calm 7.00 Mostly Cloudy BKN007 66.9 63 87% 29.9 1011.9
21 05:53 Calm 8.00 Mostly Cloudy BKN007 66.9 63 87% 29.88 1011.3
21 04:53 Calm 7.00 Mostly Cloudy BKN006 66.9 63 69.1 66 87% 29.87 1011.1
21 03:53 N 3 7.00 Overcast OVC005 66.9 63 87% 29.88 1011.2
21 02:53 N 5 8.00 Overcast OVC006 66.9 63 87% 29.88 1011.4
21 01:53 W 5 8.00 Fair CLR 66.9 63 87% 29.89 1011.8
21 00:53 W 5 9.00 Fair CLR 68 63 84% 29.9 1012.0
20 23:53 Calm 9.00 Fair CLR 68 63 84% 29.91 1012.4
20 22:53 Calm 10.00 Fair CLR 69.1 63 81 69.1 81% 29.92 1012.6
20 21:53 W 3 10.00 Fair CLR 71.1 63 76% 29.92 1012.6
20 20:53 SW 5 10.00 Fair CLR 72 63 73% 29.9 1012.1
20 19:53 NW 6 10.00 Fair CLR 75 62.1 64% 77 29.89 1011.6
20 18:53 NW 5 10.00 Fair CLR 75.9 61 60% 78 29.88 1011.3
20 17:53 W 6 10.00 Fair CLR 77 61 58% 79 29.88 1011.4
20 16:53 W 9 10.00 Fair CLR 81 63 86 79 54% 82 29.89 1011.6
Date Time (pdt) Wind (mph) Vis. (mi.) Weather Sky Cond. Air Dwpt Max. Min. Relative Humidity Wind Chill (°F) Heat Index (°F) altimeter (in) sea level (mb) 1 hr 3 hr 6 hr
6 hour
Temperature (ºF) Pressure Precipitation (in)